Time,TemperatureF,DewpointF,PressureIn,WindDirection,WindDirectionDegrees,WindSpeedMPH,WindSpeedGustMPH,Humidity,HourlyPrecipIn,Conditions,Clouds,dailyrainin,SolarRadiationWatts/m^2,SoftwareType,DateUTC
2013-09-13 00:00:00,67.8,60.3,29.92,North,0,7.0,10.0,77,0.00,,---,0.00,0.00,VWS V14.01,2013-09-13 05:00:00,
2013-09-13 00:03:00,67.6,60.1,29.92,North,354,10.0,10.0,77,0.00,,---,0.00,0.00,VWS V14.01,2013-09-13 05:03:00,
2013-09-13 00:05:00,67.6,60.1,29.92,WSW,251,7.0,10.0,77,0.00,,---,0.00,0.00,VWS V14.01,2013-09-13 05:05:00,
2013-09-13 00:08:00,67.4,60.3,29.92,North,0,8.0,8.0,78,0.00,,---,0.00,0.00,VWS V14.01,2013-09-13 05:08:00,
2013-09-13 00:10:00,67.4,60.3,29.92,North,0,6.0,9.0,78,0.00,,---,0.00,0.00,VWS V14.01,2013-09-13 05:10:00,
2013-09-13 00:13:00,67.3,60.2,29.92,WNW,284,6.0,8.0,78,0.00,,---,0.00,0.00,VWS V14.01,2013-09-13 05:13:00,
2013-09-13 00:15:00,67.3,60.2,29.93,North,0,5.0,8.0,78,0.00,,---,0.00,0.00,VWS V14.01,2013-09-13 05:15:00,
2013-09-13 00:18:00,67.3,60.2,29.93,WNW,284,3.0,6.0,78,0.00,,---,0.00,0.00,VWS V14.01,2013-09-13 05:18:00,
2013-09-13 00:20:00,67.3,60.2,29.93,NNW,343,5.0,6.0,78,0.00,,---,0.00,0.00,VWS V14.01,2013-09-13 05:20:00,
2013-09-13 00:23:00,67.1,60.0,29.93,North,356,5.0,6.0,78,0.00,,---,0.00,0.00,VWS V14.01,2013-09-13 05:23:00,
2013-09-13 00:25:00,67.1,60.0,29.93,North,359,5.0,7.0,78,0.00,,---,0.00,0.00,VWS V14.01,2013-09-13 05:25:00,
2013-09-13 00:28:00,67.1,60.0,29.93,SW,229,5.0,7.0,78,0.00,,---,0.00,0.00,VWS V14.01,2013-09-13 05:28:00,
2013-09-13 00:30:00,67.1,60.0,29.93,North,350,5.0,7.0,78,0.00,,---,0.00,0.00,VWS V14.01,2013-09-13 05:30:00,
2013-09-13 00:33:00,67.1,59.7,29.93,North,359,5.0,7.0,77,0.00,,---,0.00,0.00,VWS V14.01,2013-09-13 05:33:00,
2013-09-13 00:35:00,67.1,59.7,29.93,SSE,165,6.0,7.0,77,0.00,,---,0.00,0.00,VWS V14.01,2013-09-13 05:35:00,
2013-09-13 00:38:00,67.1,59.7,29.93,NNW,336,8.0,8.0,77,0.00,,---,0.00,0.00,VWS V14.01,2013-09-13 05:38:00,
2013-09-13 00:40:00,67.3,59.8,29.93,East,80,8.0,8.0,77,0.00,,---,0.00,0.00,VWS V14.01,2013-09-13 05:40:00,
2013-09-13 00:43:00,67.3,59.8,29.93,SW,222,5.0,8.0,77,0.00,,---,0.00,0.00,VWS V14.01,2013-09-13 05:43:00,
2013-09-13 00:45:00,67.3,59.5,29.92,West,280,9.0,9.0,76,0.00,,---,0.00,0.00,VWS V14.01,2013-09-13 05:45:00,
2013-09-13 00:48:00,67.3,59.5,29.92,East,83,9.0,10.0,76,0.00,,---,0.00,0.00,VWS V14.01,2013-09-13 05:48:00,
2013-09-13 00:50:00,67.3,59.1,29.92,West,260,7.0,10.0,75,0.00,,---,0.00,0.00,VWS V14.01,2013-09-13 05:50:00,
2013-09-13 00:53:00,67.3,59.1,29.92,SW,223,8.0,11.0,75,0.00,,---,0.00,0.00,VWS V14.01,2013-09-13 05:53:00,
2013-09-13 00:55:00,67.3,59.1,29.92,SSE,160,5.0,11.0,75,0.00,,---,0.00,0.00,VWS V14.01,2013-09-13 05:55:00,
2013-09-13 00:58:00,67.3,59.1,29.92,SW,236,6.0,8.0,75,0.00,,---,0.00,0.00,VWS V14.01,2013-09-13 05:58:00,
2013-09-13 01:00:00,67.3,59.1,29.92,SW,230,11.0,11.0,75,0.00,,---,0.00,0.00,VWS V14.01,2013-09-13 06:00:00,
2013-09-13 01:03:00,67.3,58.7,29.92,North,349,7.0,11.0,74,0.00,,---,0.00,0.00,VWS V14.01,2013-09-13 06:03:00,
2013-09-13 01:05:00,67.3,59.1,29.92,North,350,6.0,11.0,75,0.00,,---,0.00,0.00,VWS V14.01,2013-09-13 06:05:00,
2013-09-13 01:09:00,67.1,58.5,29.92,WNW,302,8.0,8.0,74,0.00,,---,0.00,0.00,VWS V14.01,2013-09-13 06:09:00,
2013-09-13 01:10:00,67.1,58.5,29.92,SW,222,8.0,8.0,74,0.00,,---,0.00,0.00,VWS V14.01,2013-09-13 06:10:00,
2013-09-13 01:14:00,66.9,58.3,29.92,NNW,342,7.0,8.0,74,0.00,,---,0.00,0.00,VWS V14.01,2013-09-13 06:14:00,
2013-09-13 01:15:00,66.9,58.3,29.92,SE,133,6.0,8.0,74,0.00,,---,0.00,0.00,VWS V14.01,2013-09-13 06:15:00,
2013-09-13 01:19:00,66.9,58.3,29.92,North,0,7.0,8.0,74,0.00,,---,0.00,0.00,VWS V14.01,2013-09-13 06:19:00,
2013-09-13 01:20:00,66.9,58.3,29.92,North,354,7.0,8.0,74,0.00,,---,0.00,0.00,VWS V14.01,2013-09-13 06:20:00,
2013-09-13 01:24:00,66.9,58.3,29.92,NNW,343,6.0,8.0,74,0.00,,---,0.00,0.00,VWS V14.01,2013-09-13 06:24:00,
2013-09-13 01:25:00,66.8,58.3,29.92,NNW,344,7.0,8.0,74,0.00,,---,0.00,0.00,VWS V14.01,2013-09-13 06:25:00,
2013-09-13 01:29:00,66.8,57.9,29.92,West,277,6.0,10.0,73,0.00,,---,0.00,0.00,VWS V14.01,2013-09-13 06:29:00,
2013-09-13 01:30:00,66.8,57.9,29.93,North,349,6.0,10.0,73,0.00,,---,0.00,0.00,VWS V14.01,2013-09-13 06:30:00,
2013-09-13 01:34:00,66.8,57.5,29.93,North,350,8.0,11.0,72,0.00,,---,0.00,0.00,VWS V14.01,2013-09-13 06:34:00,
2013-09-13 01:35:00,66.8,57.5,29.93,SSW,193,9.0,11.0,72,0.00,,---,0.00,0.00,VWS V14.01,2013-09-13 06:35:00,
2013-09-13 01:39:00,66.6,56.9,29.93,NW,304,9.0,11.0,71,0.00,,---,0.00,0.00,VWS V14.01,2013-09-13 06:39:00,
2013-09-13 01:40:00,66.6,56.9,29.93,North,356,7.0,11.0,71,0.00,,---,0.00,0.00,VWS V14.01,2013-09-13 06:40:00,
2013-09-13 01:44:00,66.6,56.5,29.93,North,0,9.0,11.0,70,0.00,,---,0.00,0.00,VWS V14.01,2013-09-13 06:44:00,
2013-09-13 01:45:00,66.6,56.1,29.92,NW,315,8.0,12.0,69,0.00,,---,0.00,0.00,VWS V14.01,2013-09-13 06:45:00,
2013-09-13 01:49:00,66.6,56.1,29.92,West,261,8.0,12.0,69,0.00,,---,0.00,0.00,VWS V14.01,2013-09-13 06:49:00,
2013-09-13 01:50:00,66.6,56.1,29.92,North,0,8.0,12.0,69,0.00,,---,0.00,0.00,VWS V14.01,2013-09-13 06:50:00,
2013-09-13 01:54:00,66.4,55.9,29.92,SSE,158,7.0,11.0,69,0.00,,---,0.00,0.00,VWS V14.01,2013-09-13 06:54:00,
2013-09-13 01:55:00,66.4,55.5,29.92,North,0,8.0,11.0,68,0.00,,---,0.00,0.00,VWS V14.01,2013-09-13 06:55:00,
2013-09-13 01:59:00,66.4,55.9,29.92,WNW,296,7.0,11.0,69,0.00,,---,0.00,0.00,VWS V14.01,2013-09-13 06:59:00,
2013-09-13 02:00:00,66.3,55.8,29.92,NW,318,9.0,11.0,69,0.00,,---,0.00,0.00,VWS V14.01,2013-09-13 07:00:00,
2013-09-13 02:04:00,66.3,55.4,29.92,NNW,346,9.0,12.0,68,0.00,,---,0.00,0.00,VWS V14.01,2013-09-13 07:04:00,
2013-09-13 02:05:00,66.1,55.2,29.92,SSE,165,8.0,12.0,68,0.00,,---,0.00,0.00,VWS V14.01,2013-09-13 07:05:00,
2013-09-13 02:09:00,66.1,55.2,29.92,North,352,7.0,10.0,68,0.00,,---,0.00,0.00,VWS V14.01,2013-09-13 07:09:00,
2013-09-13 02:10:00,66.1,55.2,29.92,NNW,347,8.0,10.0,68,0.00,,---,0.00,0.00,VWS V14.01,2013-09-13 07:10:00,
2013-09-13 02:14:00,66.0,55.2,29.93,North,0,8.0,12.0,68,0.00,,---,0.00,0.00,VWS V14.01,2013-09-13 07:14:00,
2013-09-13 02:15:00,66.0,55.2,29.93,North,0,7.0,12.0,68,0.00,,---,0.00,0.00,VWS V14.01,2013-09-13 07:15:00,
2013-09-13 02:19:00,65.8,55.0,29.93,North,350,7.0,10.0,68,0.00,,---,0.00,0.00,VWS V14.01,2013-09-13 07:19:00,
2013-09-13 02:20:00,65.8,55.0,29.93,ENE,72,6.0,10.0,68,0.00,,---,0.00,0.00,VWS V14.01,2013-09-13 07:20:00,
2013-09-13 02:24:00,65.6,54.8,29.93,WNW,288,8.0,11.0,68,0.00,,---,0.00,0.00,VWS V14.01,2013-09-13 07:24:00,
2013-09-13 02:25:00,65.6,54.8,29.93,NNW,329,8.0,11.0,68,0.00,,---,0.00,0.00,VWS V14.01,2013-09-13 07:25:00,
2013-09-13 02:29:00,65.6,54.8,29.93,ENE,78,9.0,11.0,68,0.00,,---,0.00,0.00,VWS V14.01,2013-09-13 07:29:00,
2013-09-13 02:30:00,65.6,54.8,29.93,SSW,196,8.0,11.0,68,0.00,,---,0.00,0.00,VWS V14.01,2013-09-13 07:30:00,
2013-09-13 02:35:00,65.5,54.7,29.93,North,359,10.0,10.0,68,0.00,,---,0.00,0.00,VWS V14.01,2013-09-13 07:35:00,
2013-09-13 02:40:00,65.3,54.5,29.93,WSW,240,6.0,9.0,68,0.00,,---,0.00,0.00,VWS V14.01,2013-09-13 07:40:00,
2013-09-13 02:45:00,65.3,54.9,29.93,East,88,7.0,10.0,69,0.00,,---,0.00,0.00,VWS V14.01,2013-09-13 07:45:00,
2013-09-13 02:50:00,65.3,54.5,29.93,NW,306,7.0,8.0,68,0.00,,---,0.00,0.00,VWS V14.01,2013-09-13 07:50:00,
2013-09-13 02:55:00,65.3,54.5,29.93,North,0,7.0,9.0,68,0.00,,---,0.00,0.00,VWS V14.01,2013-09-13 07:55:00,
2013-09-13 03:00:00,65.3,54.1,29.93,NW,316,7.0,9.0,67,0.00,,---,0.00,0.00,VWS V14.01,2013-09-13 08:00:00,
2013-09-13 03:05:00,65.3,54.1,29.93,SE,133,6.0,10.0,67,0.00,,---,0.00,0.00,VWS V14.01,2013-09-13 08:05:00,
2013-09-13 03:10:00,65.2,54.0,29.93,NW,320,6.0,9.0,67,0.00,,---,0.00,0.00,VWS V14.01,2013-09-13 08:10:00,
2013-09-13 03:15:00,65.0,53.8,29.93,SSW,193,5.0,10.0,67,0.00,,---,0.00,0.00,VWS V14.01,2013-09-13 08:15:00,
2013-09-13 03:20:00,65.0,53.8,29.93,NW,320,6.0,8.0,67,0.00,,---,0.00,0.00,VWS V14.01,2013-09-13 08:20:00,
2013-09-13 03:25:00,64.8,53.6,29.93,SSW,193,7.0,8.0,67,0.00,,---,0.00,0.00,VWS V14.01,2013-09-13 08:25:00,
2013-09-13 03:30:00,64.8,53.6,29.92,SSW,205,3.0,7.0,67,0.00,,---,0.00,0.00,VWS V14.01,2013-09-13 08:30:00,
2013-09-13 03:35:00,64.8,53.6,29.92,North,356,8.0,8.0,67,0.00,,---,0.00,0.00,VWS V14.01,2013-09-13 08:35:00,
2013-09-13 03:41:00,64.7,53.5,29.92,ESE,107,7.0,8.0,67,0.00,,---,0.00,0.00,VWS V14.01,2013-09-13 08:41:00,
2013-09-13 03:45:00,64.7,53.5,29.92,West,277,7.0,8.0,67,0.00,,---,0.00,0.00,VWS V14.01,2013-09-13 08:45:00,
2013-09-13 03:46:00,64.7,53.5,29.92,East,80,7.0,7.0,67,0.00,,---,0.00,0.00,VWS V14.01,2013-09-13 08:46:00,
2013-09-13 03:51:00,64.5,52.9,29.92,WSW,237,8.0,9.0,66,0.00,,---,0.00,0.00,VWS V14.01,2013-09-13 08:51:00,
2013-09-13 03:55:00,64.5,52.9,29.92,North,354,8.0,10.0,66,0.00,,---,0.00,0.00,VWS V14.01,2013-09-13 08:55:00,
2013-09-13 03:56:00,64.5,52.9,29.92,North,357,7.0,10.0,66,0.00,,---,0.00,0.00,VWS V14.01,2013-09-13 08:56:00,
2013-09-13 04:00:00,64.5,52.9,29.92,North,352,8.0,10.0,66,0.00,,---,0.00,0.00,VWS V14.01,2013-09-13 09:00:00,
2013-09-13 04:01:00,64.3,52.7,29.92,NNW,329,8.0,8.0,66,0.00,,---,0.00,0.00,VWS V14.01,2013-09-13 09:01:00,
2013-09-13 04:05:00,64.3,52.7,29.92,SSE,168,8.0,11.0,66,0.00,,---,0.00,0.00,VWS V14.01,2013-09-13 09:05:00,
2013-09-13 04:06:00,64.3,52.7,29.92,NW,325,6.0,8.0,66,0.00,,---,0.00,0.00,VWS V14.01,2013-09-13 09:06:00,
2013-09-13 04:11:00,64.2,53.0,29.92,South,175,7.0,9.0,67,0.00,,---,0.00,0.00,VWS V14.01,2013-09-13 09:11:00,
2013-09-13 04:15:00,64.0,52.8,29.92,North,0,8.0,10.0,67,0.00,,---,0.00,0.00,VWS V14.01,2013-09-13 09:15:00,
2013-09-13 04:16:00,64.0,52.8,29.92,North,0,8.0,9.0,67,0.00,,---,0.00,0.00,VWS V14.01,2013-09-13 09:16:00,
2013-09-13 04:20:00,64.0,52.8,29.92,NW,315,7.0,10.0,67,0.00,,---,0.00,0.00,VWS V14.01,2013-09-13 09:20:00,
2013-09-13 04:21:00,63.9,52.7,29.92,East,82,7.0,8.0,67,0.00,,---,0.00,0.00,VWS V14.01,2013-09-13 09:21:00,
2013-09-13 04:25:00,63.9,53.2,29.92,NNW,346,7.0,10.0,68,0.00,,---,0.00,0.00,VWS V14.01,2013-09-13 09:25:00,
2013-09-13 04:26:00,63.9,53.1,29.92,North,352,7.0,10.0,68,0.00,,---,0.00,0.00,VWS V14.01,2013-09-13 09:26:00,
2013-09-13 04:30:00,63.7,53.0,29.92,North,0,7.0,11.0,68,0.00,,---,0.00,0.00,VWS V14.01,2013-09-13 09:30:00,
2013-09-13 04:31:00,63.7,53.0,29.92,South,174,10.0,10.0,68,0.00,,---,0.00,0.00,VWS V14.01,2013-09-13 09:31:00,
2013-09-13 04:35:00,63.5,53.2,29.92,North,0,9.0,11.0,69,0.00,,---,0.00,0.00,VWS V14.01,2013-09-13 09:35:00,
2013-09-13 04:36:00,63.5,53.2,29.92,NNW,339,8.0,10.0,69,0.00,,---,0.00,0.00,VWS V14.01,2013-09-13 09:36:00,
2013-09-13 04:40:00,63.4,53.1,29.92,North,354,7.0,10.0,69,0.00,,---,0.00,0.00,VWS V14.01,2013-09-13 09:40:00,
2013-09-13 04:41:00,63.4,53.1,29.92,NW,320,8.0,9.0,69,0.00,,---,0.00,0.00,VWS V14.01,2013-09-13 09:41:00,
2013-09-13 04:45:00,63.2,53.3,29.93,North,0,7.0,9.0,70,0.00,,---,0.00,0.00,VWS V14.01,2013-09-13 09:45:00,
2013-09-13 04:46:00,63.2,53.3,29.93,North,354,10.0,10.0,70,0.00,,---,0.00,0.00,VWS V14.01,2013-09-13 09:46:00,
2013-09-13 04:50:00,63.2,53.3,29.93,North,0,6.0,10.0,70,0.00,,---,0.00,0.00,VWS V14.01,2013-09-13 09:50:00,
2013-09-13 04:51:00,63.1,53.2,29.93,North,0,6.0,8.0,70,0.00,,---,0.00,0.00,VWS V14.01,2013-09-13 09:51:00,
2013-09-13 04:55:00,63.1,53.2,29.93,ESE,102,7.0,8.0,70,0.00,,---,0.00,0.00,VWS V14.01,2013-09-13 09:55:00,
2013-09-13 04:57:00,62.9,53.4,29.93,North,352,6.0,7.0,71,0.00,,---,0.00,0.00,VWS V14.01,2013-09-13 09:57:00,
2013-09-13 05:00:00,62.7,53.2,29.93,ESE,117,7.0,7.0,71,0.00,,---,0.00,0.00,VWS V14.01,2013-09-13 10:00:00,
2013-09-13 05:02:00,62.7,53.2,29.93,ESE,106,6.0,7.0,71,0.00,,---,0.00,0.00,VWS V14.01,2013-09-13 10:02:00,
2013-09-13 05:05:00,62.6,53.5,29.93,NNW,346,5.0,7.0,72,0.00,,---,0.00,0.00,VWS V14.01,2013-09-13 10:05:00,
2013-09-13 05:07:00,62.6,53.5,29.93,SSE,160,4.0,7.0,72,0.00,,---,0.00,0.00,VWS V14.01,2013-09-13 10:07:00,
2013-09-13 05:10:00,62.4,53.3,29.93,North,353,6.0,7.0,72,0.00,,---,0.00,0.00,VWS V14.01,2013-09-13 10:10:00,
2013-09-13 05:12:00,62.4,53.3,29.93,North,354,6.0,7.0,72,0.00,,---,0.00,0.00,VWS V14.01,2013-09-13 10:12:00,
2013-09-13 05:15:00,62.3,53.2,29.94,NNW,343,6.0,7.0,72,0.00,,---,0.00,0.00,VWS V14.01,2013-09-13 10:15:00,
2013-09-13 05:17:00,62.3,53.2,29.94,North,0,6.0,7.0,72,0.00,,---,0.00,0.00,VWS V14.01,2013-09-13 10:17:00,
2013-09-13 05:20:00,62.1,53.3,29.94,North,352,7.0,8.0,73,0.00,,---,0.00,0.00,VWS V14.01,2013-09-13 10:20:00,
2013-09-13 05:22:00,62.1,53.3,29.94,North,0,6.0,7.0,73,0.00,,---,0.00,0.00,VWS V14.01,2013-09-13 10:22:00,
2013-09-13 05:25:00,62.0,53.3,29.94,WSW,247,6.0,7.0,73,0.00,,---,0.00,0.00,VWS V14.01,2013-09-13 10:25:00,
2013-09-13 05:27:00,62.0,53.6,29.94,North,0,7.0,7.0,74,0.00,,---,0.00,0.00,VWS V14.01,2013-09-13 10:27:00,
2013-09-13 05:30:00,61.8,53.4,29.94,NNW,346,6.0,7.0,74,0.00,,---,0.00,0.00,VWS V14.01,2013-09-13 10:30:00,
2013-09-13 05:32:00,61.8,53.4,29.94,NNW,329,6.0,7.0,74,0.00,,---,0.00,0.00,VWS V14.01,2013-09-13 10:32:00,
2013-09-13 05:35:00,61.6,53.6,29.94,North,357,7.0,7.0,75,0.00,,---,0.00,0.00,VWS V14.01,2013-09-13 10:35:00,
2013-09-13 05:37:00,61.6,53.6,29.94,North,349,7.0,8.0,75,0.00,,---,0.00,0.00,VWS V14.01,2013-09-13 10:37:00,
2013-09-13 05:40:00,61.5,53.5,29.94,SW,236,7.0,8.0,75,0.00,,---,0.00,0.00,VWS V14.01,2013-09-13 10:40:00,
2013-09-13 05:42:00,61.5,53.5,29.94,NNW,329,7.0,7.0,75,0.00,,---,0.00,0.00,VWS V14.01,2013-09-13 10:42:00,
2013-09-13 05:45:00,61.3,53.3,29.94,East,100,6.0,8.0,75,0.00,,---,0.00,0.00,VWS V14.01,2013-09-13 10:45:00,
2013-09-13 05:47:00,61.3,53.7,29.94,NNW,330,6.0,7.0,76,0.00,,---,0.00,0.00,VWS V14.01,2013-09-13 10:47:00,
2013-09-13 05:50:00,61.2,53.6,29.94,NNW,346,6.0,7.0,76,0.00,,---,0.00,0.00,VWS V14.01,2013-09-13 10:50:00,
2013-09-13 05:52:00,61.2,53.6,29.94,North,0,6.0,7.0,76,0.00,,---,0.00,0.00,VWS V14.01,2013-09-13 10:52:00,
2013-09-13 05:55:00,61.0,53.4,29.94,NW,315,7.0,7.0,76,0.00,,---,0.00,0.00,VWS V14.01,2013-09-13 10:55:00,
2013-09-13 05:57:00,61.0,53.4,29.94,ESE,110,5.0,7.0,76,0.00,,---,0.00,0.00,VWS V14.01,2013-09-13 10:57:00,
2013-09-13 06:00:00,60.9,53.7,29.94,ENE,66,3.0,7.0,77,0.00,,---,0.00,0.00,VWS V14.01,2013-09-13 11:00:00,
2013-09-13 06:02:00,60.9,53.7,29.94,SSW,192,5.0,6.0,77,0.00,,---,0.00,0.00,VWS V14.01,2013-09-13 11:02:00,
2013-09-13 06:05:00,60.7,53.5,29.94,ESE,114,6.0,8.0,77,0.00,,---,0.00,0.00,VWS V14.01,2013-09-13 11:05:00,
2013-09-13 06:08:00,60.5,53.3,29.94,WNW,285,5.0,7.0,77,0.00,,---,0.00,0.00,VWS V14.01,2013-09-13 11:08:00,
2013-09-13 06:10:00,60.4,53.2,29.94,WNW,287,7.0,8.0,77,0.00,,---,0.00,0.00,VWS V14.01,2013-09-13 11:10:00,
2013-09-13 06:13:00,60.4,53.2,29.94,North,0,5.0,7.0,77,0.00,,---,0.00,0.00,VWS V14.01,2013-09-13 11:13:00,
2013-09-13 06:15:00,60.2,53.3,29.95,SW,230,5.0,7.0,78,0.00,,---,0.00,0.00,VWS V14.01,2013-09-13 11:15:00,
2013-09-13 06:18:00,60.1,53.2,29.95,North,0,6.0,7.0,78,0.00,,---,0.00,0.00,VWS V14.01,2013-09-13 11:18:00,
2013-09-13 06:20:00,60.1,53.2,29.95,North,359,5.0,7.0,78,0.00,,---,0.00,0.00,VWS V14.01,2013-09-13 11:20:00,
2013-09-13 06:23:00,59.9,53.4,29.95,North,0,6.0,7.0,79,0.00,,---,0.00,0.00,VWS V14.01,2013-09-13 11:23:00,
2013-09-13 06:25:00,59.9,53.4,29.95,North,0,6.0,7.0,79,0.00,,---,0.00,0.00,VWS V14.01,2013-09-13 11:25:00,
2013-09-13 06:28:00,59.9,53.4,29.95,North,0,7.0,7.0,79,0.00,,---,0.00,0.00,VWS V14.01,2013-09-13 11:28:00,
2013-09-13 06:30:00,59.8,53.3,29.95,NW,311,6.0,7.0,79,0.00,,---,0.00,0.00,VWS V14.01,2013-09-13 11:30:00,
2013-09-13 06:33:00,59.8,53.3,29.95,North,0,6.0,7.0,79,0.00,,---,0.00,0.00,VWS V14.01,2013-09-13 11:33:00,
2013-09-13 06:35:00,59.8,53.3,29.95,WNW,299,6.0,7.0,79,0.00,,---,0.00,0.00,VWS V14.01,2013-09-13 11:35:00,
2013-09-13 06:38:00,59.8,53.3,29.95,NW,306,5.0,6.0,79,0.00,,---,0.00,0.00,VWS V14.01,2013-09-13 11:38:00,
2013-09-13 06:40:00,59.8,53.3,29.95,ESE,104,6.0,7.0,79,0.00,,---,0.00,0.00,VWS V14.01,2013-09-13 11:40:00,
2013-09-13 06:43:00,59.8,53.3,29.95,WNW,285,6.0,7.0,79,0.00,,---,0.00,0.00,VWS V14.01,2013-09-13 11:43:00,
2013-09-13 06:45:00,59.8,53.3,29.95,NNW,347,5.0,7.0,79,0.00,,---,0.00,0.00,VWS V14.01,2013-09-13 11:45:00,
2013-09-13 06:48:00,59.8,53.3,29.95,NNW,332,6.0,6.0,79,0.00,,---,0.00,0.00,VWS V14.01,2013-09-13 11:48:00,
2013-09-13 06:50:00,59.8,53.3,29.95,ENE,69,5.0,6.0,79,0.00,,---,0.00,0.00,VWS V14.01,2013-09-13 11:50:00,
2013-09-13 06:53:00,59.8,53.3,29.95,ENE,68,4.0,6.0,79,0.00,,---,0.00,0.00,VWS V14.01,2013-09-13 11:53:00,
2013-09-13 06:55:00,59.8,53.3,29.95,North,0,3.0,6.0,79,0.00,,---,0.00,0.00,VWS V14.01,2013-09-13 11:55:00,
2013-09-13 06:58:00,59.8,53.3,29.95,ENE,78,4.0,5.0,79,0.00,,---,0.00,0.00,VWS V14.01,2013-09-13 11:58:00,
2013-09-13 07:00:00,59.6,53.1,29.95,East,79,5.0,5.0,79,0.00,,---,0.00,0.00,VWS V14.01,2013-09-13 12:00:00,
2013-09-13 07:03:00,59.6,53.1,29.95,North,356,5.0,6.0,79,0.00,,---,0.00,0.00,VWS V14.01,2013-09-13 12:03:00,
2013-09-13 07:05:00,59.6,53.1,29.95,ESE,121,6.0,6.0,79,0.00,,---,0.00,0.00,VWS V14.01,2013-09-13 12:05:00,
2013-09-13 07:08:00,59.8,53.3,29.95,North,349,5.0,6.0,79,0.00,,---,0.00,0.00,VWS V14.01,2013-09-13 12:08:00,
2013-09-13 07:10:00,59.8,53.3,29.95,North,0,5.0,6.0,79,0.00,,---,0.00,0.00,VWS V14.01,2013-09-13 12:10:00,
2013-09-13 07:13:00,59.8,53.3,29.95,SSE,167,6.0,6.0,79,0.00,,---,0.00,0.00,VWS V14.01,2013-09-13 12:13:00,
2013-09-13 07:15:00,59.8,53.3,29.95,North,356,5.0,6.0,79,0.00,,---,0.00,0.00,VWS V14.01,2013-09-13 12:15:00,
2013-09-13 07:18:00,59.9,53.4,29.95,South,186,4.0,6.0,79,0.00,,---,0.00,0.00,VWS V14.01,2013-09-13 12:18:00,
2013-09-13 07:20:00,59.9,53.4,29.95,North,0,6.0,7.0,79,0.00,,---,0.00,0.00,VWS V14.01,2013-09-13 12:20:00,
2013-09-13 07:23:00,59.9,53.4,29.95,North,353,5.0,7.0,79,0.00,,---,0.00,0.00,VWS V14.01,2013-09-13 12:23:00,
2013-09-13 07:25:00,59.9,53.4,29.95,SSE,150,5.0,7.0,79,0.00,,---,0.00,0.00,VWS V14.01,2013-09-13 12:25:00,
2013-09-13 07:28:00,59.9,53.7,29.95,NNW,330,3.0,7.0,80,0.00,,---,0.00,0.00,VWS V14.01,2013-09-13 12:28:00,
2013-09-13 07:30:00,59.9,53.7,29.95,North,0,6.0,7.0,80,0.00,,---,0.00,0.00,VWS V14.01,2013-09-13 12:30:00,
2013-09-13 07:34:00,60.1,53.9,29.95,NNW,343,5.0,7.0,80,0.00,,---,0.00,0.00,VWS V14.01,2013-09-13 12:34:00,
2013-09-13 07:35:00,60.1,53.9,29.95,North,0,6.0,7.0,80,0.00,,---,0.00,0.00,VWS V14.01,2013-09-13 12:35:00,
2013-09-13 07:39:00,60.1,53.9,29.95,SSE,155,5.0,6.0,80,0.00,,---,0.00,7.00,VWS V14.01,2013-09-13 12:39:00,
2013-09-13 07:40:00,60.1,53.9,29.95,West,280,5.0,6.0,80,0.00,,---,0.00,12.00,VWS V14.01,2013-09-13 12:40:00,
2013-09-13 07:44:00,60.2,54.0,29.95,East,89,5.0,6.0,80,0.00,,---,0.00,12.00,VWS V14.01,2013-09-13 12:44:00,
2013-09-13 07:45:00,60.2,54.0,29.95,NW,312,6.0,6.0,80,0.00,,---,0.00,19.00,VWS V14.01,2013-09-13 12:45:00,
2013-09-13 07:49:00,60.2,54.0,29.95,WNW,294,5.0,7.0,80,0.00,,---,0.00,28.00,VWS V14.01,2013-09-13 12:49:00,
2013-09-13 07:50:00,60.2,54.0,29.95,SE,143,5.0,7.0,80,0.00,,---,0.00,28.00,VWS V14.01,2013-09-13 12:50:00,
2013-09-13 07:54:00,60.4,54.2,29.95,North,350,6.0,8.0,80,0.00,,---,0.00,35.00,VWS V14.01,2013-09-13 12:54:00,
2013-09-13 07:55:00,60.4,54.2,29.95,North,352,6.0,8.0,80,0.00,,---,0.00,35.00,VWS V14.01,2013-09-13 12:55:00,
2013-09-13 07:59:00,60.5,54.3,29.95,WNW,298,6.0,7.0,80,0.00,,---,0.00,42.00,VWS V14.01,2013-09-13 12:59:00,
2013-09-13 08:00:00,60.5,54.3,29.95,WSW,240,5.0,7.0,80,0.00,,---,0.00,42.00,VWS V14.01,2013-09-13 13:00:00,
2013-09-13 08:04:00,60.7,54.2,29.95,West,271,6.0,7.0,79,0.00,,---,0.00,49.00,VWS V14.01,2013-09-13 13:04:00,
2013-09-13 08:05:00,60.7,54.2,29.95,WNW,294,3.0,7.0,79,0.00,,---,0.00,51.00,VWS V14.01,2013-09-13 13:05:00,
2013-09-13 08:09:00,60.7,54.2,29.95,North,350,5.0,7.0,79,0.00,,---,0.00,51.00,VWS V14.01,2013-09-13 13:09:00,
2013-09-13 08:10:00,60.7,54.2,29.95,North,0,5.0,7.0,79,0.00,,---,0.00,55.00,VWS V14.01,2013-09-13 13:10:00,
2013-09-13 08:14:00,60.9,54.0,29.95,West,278,5.0,6.0,78,0.00,,---,0.00,69.00,VWS V14.01,2013-09-13 13:14:00,
2013-09-13 08:15:00,61.0,54.1,29.96,North,0,4.0,6.0,78,0.00,,---,0.00,69.00,VWS V14.01,2013-09-13 13:15:00,
2013-09-13 08:19:00,61.2,53.9,29.96,NNW,342,5.0,7.0,77,0.00,,---,0.00,74.00,VWS V14.01,2013-09-13 13:19:00,
2013-09-13 08:20:00,61.2,53.9,29.96,East,86,5.0,7.0,77,0.00,,---,0.00,74.00,VWS V14.01,2013-09-13 13:20:00,
2013-09-13 08:24:00,61.3,53.7,29.96,SSE,164,5.0,7.0,76,0.00,,---,0.00,81.00,VWS V14.01,2013-09-13 13:24:00,
2013-09-13 08:25:00,61.3,53.7,29.96,NNW,343,7.0,7.0,76,0.00,,---,0.00,83.00,VWS V14.01,2013-09-13 13:25:00,
2013-09-13 08:29:00,61.6,54.0,29.96,North,0,6.0,7.0,76,0.00,,---,0.00,88.00,VWS V14.01,2013-09-13 13:29:00,
2013-09-13 08:30:00,61.6,54.0,29.96,SW,233,6.0,7.0,76,0.00,,---,0.00,90.00,VWS V14.01,2013-09-13 13:30:00,
2013-09-13 08:35:00,61.8,54.2,29.96,NNW,335,6.0,7.0,76,0.00,,---,0.00,95.00,VWS V14.01,2013-09-13 13:35:00,
2013-09-13 08:40:00,61.8,53.8,29.96,SW,223,5.0,8.0,75,0.00,,---,0.00,107.00,VWS V14.01,2013-09-13 13:40:00,
2013-09-13 08:45:00,62.0,53.6,29.96,West,275,7.0,8.0,74,0.00,,---,0.00,118.00,VWS V14.01,2013-09-13 13:45:00,
2013-09-13 08:50:00,62.1,53.3,29.96,North,0,5.0,7.0,73,0.00,,---,0.00,125.00,VWS V14.01,2013-09-13 13:50:00,
2013-09-13 08:55:00,62.4,53.6,29.96,WNW,299,3.0,5.0,73,0.00,,---,0.00,130.00,VWS V14.01,2013-09-13 13:55:00,
2013-09-13 09:00:00,62.6,53.5,29.97,East,80,6.0,7.0,72,0.00,,---,0.00,130.00,VWS V14.01,2013-09-13 14:00:00,
2013-09-13 09:05:00,62.7,53.2,29.97,West,268,5.0,7.0,71,0.00,,---,0.00,127.00,VWS V14.01,2013-09-13 14:05:00,
2013-09-13 09:10:00,62.9,53.0,29.97,NW,306,6.0,7.0,70,0.00,,---,0.00,120.00,VWS V14.01,2013-09-13 14:10:00,
2013-09-13 09:15:00,63.2,52.9,29.96,SW,222,6.0,7.0,69,0.00,,---,0.00,121.00,VWS V14.01,2013-09-13 14:15:00,
2013-09-13 09:20:00,63.4,52.7,29.96,NNW,346,6.0,8.0,68,0.00,,---,0.00,127.00,VWS V14.01,2013-09-13 14:20:00,
2013-09-13 09:25:00,63.5,52.0,29.96,North,0,5.0,11.0,66,0.00,,---,0.00,135.00,VWS V14.01,2013-09-13 14:25:00,
2013-09-13 09:30:00,63.9,51.9,29.96,SE,131,8.0,10.0,65,0.00,,---,0.00,144.00,VWS V14.01,2013-09-13 14:30:00,
2013-09-13 09:35:00,64.0,52.0,29.96,ESE,112,8.0,12.0,65,0.00,,---,0.00,153.00,VWS V14.01,2013-09-13 14:35:00,
2013-09-13 09:40:00,64.2,51.8,29.96,NNW,343,7.0,11.0,64,0.00,,---,0.00,171.00,VWS V14.01,2013-09-13 14:40:00,
2013-09-13 09:45:00,64.3,52.3,29.96,SE,140,7.0,8.0,65,0.00,,---,0.00,181.00,VWS V14.01,2013-09-13 14:45:00,
2013-09-13 09:50:00,64.5,52.9,29.96,WNW,284,9.0,9.0,66,0.00,,---,0.00,192.00,VWS V14.01,2013-09-13 14:50:00,
2013-09-13 09:55:00,64.7,52.3,29.96,SSE,150,6.0,7.0,64,0.00,,---,0.00,211.00,VWS V14.01,2013-09-13 14:55:00,
2013-09-13 10:00:00,65.0,52.5,29.96,North,0,3.0,6.0,64,0.00,,---,0.00,236.00,VWS V14.01,2013-09-13 15:00:00,
2013-09-13 10:05:00,65.2,52.3,29.96,WSW,257,7.0,8.0,63,0.00,,---,0.00,280.00,VWS V14.01,2013-09-13 15:05:00,
2013-09-13 10:06:00,65.2,52.3,29.96,WNW,291,6.0,7.0,63,0.00,,---,0.00,290.00,VWS V14.01,2013-09-13 15:06:00,
2013-09-13 10:10:00,65.5,52.2,29.96,NW,309,8.0,9.0,62,0.00,,---,0.00,297.00,VWS V14.01,2013-09-13 15:10:00,
2013-09-13 10:11:00,65.5,51.7,29.96,NW,323,7.0,9.0,61,0.00,,---,0.00,292.00,VWS V14.01,2013-09-13 15:11:00,
2013-09-13 10:15:00,65.6,51.4,29.96,WSW,239,4.0,11.0,60,0.00,,---,0.00,301.00,VWS V14.01,2013-09-13 15:15:00,
2013-09-13 10:16:00,65.8,52.0,29.96,ESE,120,6.0,8.0,61,0.00,,---,0.00,308.00,VWS V14.01,2013-09-13 15:16:00,
2013-09-13 10:20:00,66.1,51.4,29.96,East,100,7.0,10.0,59,0.00,,---,0.00,371.00,VWS V14.01,2013-09-13 15:20:00,
2013-09-13 10:21:00,66.3,51.6,29.96,ESE,113,5.0,7.0,59,0.00,,---,0.00,345.00,VWS V14.01,2013-09-13 15:21:00,
2013-09-13 10:25:00,66.6,51.4,29.96,SSW,198,7.0,11.0,58,0.00,,---,0.00,327.00,VWS V14.01,2013-09-13 15:25:00,
2013-09-13 10:26:00,66.8,51.6,29.96,NNW,347,7.0,7.0,58,0.00,,---,0.00,341.00,VWS V14.01,2013-09-13 15:26:00,
2013-09-13 10:30:00,67.1,51.4,29.97,North,0,9.0,11.0,57,0.00,,---,0.00,355.00,VWS V14.01,2013-09-13 15:30:00,
2013-09-13 10:31:00,67.3,51.6,29.97,WSW,253,6.0,9.0,57,0.00,,---,0.00,348.00,VWS V14.01,2013-09-13 15:31:00,
2013-09-13 10:35:00,67.4,51.7,29.97,NNW,329,8.0,11.0,57,0.00,,---,0.00,308.00,VWS V14.01,2013-09-13 15:35:00,
2013-09-13 10:36:00,67.4,51.7,29.97,NW,305,12.0,12.0,57,0.00,,---,0.00,304.00,VWS V14.01,2013-09-13 15:36:00,
2013-09-13 10:40:00,67.4,51.2,29.97,NNW,328,12.0,12.0,56,0.00,,---,0.00,294.00,VWS V14.01,2013-09-13 15:40:00,
2013-09-13 10:41:00,67.4,51.2,29.97,WSW,241,11.0,12.0,56,0.00,,---,0.00,290.00,VWS V14.01,2013-09-13 15:41:00,
2013-09-13 10:45:00,67.4,50.7,29.97,North,357,10.0,13.0,55,0.00,,---,0.00,283.00,VWS V14.01,2013-09-13 15:45:00,
2013-09-13 10:46:00,67.6,49.9,29.97,South,186,10.0,12.0,53,0.00,,---,0.00,283.00,VWS V14.01,2013-09-13 15:46:00,
2013-09-13 10:50:00,67.8,51.1,29.97,North,357,10.0,12.0,55,0.00,,---,0.00,294.00,VWS V14.01,2013-09-13 15:50:00,
2013-09-13 10:51:00,67.9,51.2,29.97,NW,322,10.0,11.0,55,0.00,,---,0.00,297.00,VWS V14.01,2013-09-13 15:51:00,
2013-09-13 10:55:00,68.1,50.8,29.97,WSW,243,7.0,12.0,54,0.00,,---,0.00,287.00,VWS V14.01,2013-09-13 15:55:00,
2013-09-13 10:57:00,68.1,50.8,29.97,West,271,7.0,13.0,54,0.00,,---,0.00,285.00,VWS V14.01,2013-09-13 15:57:00,
2013-09-13 11:00:00,68.3,50.0,29.95,North,0,8.0,16.0,52,0.00,,---,0.00,299.00,VWS V14.01,2013-09-13 16:00:00,
2013-09-13 11:02:00,68.3,50.0,29.95,SE,144,10.0,13.0,52,0.00,,---,0.00,318.00,VWS V14.01,2013-09-13 16:02:00,
2013-09-13 11:05:00,68.4,50.1,29.95,NNW,330,11.0,13.0,52,0.00,,---,0.00,366.00,VWS V14.01,2013-09-13 16:05:00,
2013-09-13 11:07:00,68.4,50.1,29.95,WSW,237,10.0,13.0,52,0.00,,---,0.00,377.00,VWS V14.01,2013-09-13 16:07:00,
2013-09-13 11:10:00,68.6,50.3,29.95,North,350,5.0,13.0,52,0.00,,---,0.00,354.00,VWS V14.01,2013-09-13 16:10:00,
2013-09-13 11:12:00,68.6,50.3,29.95,North,0,14.0,14.0,52,0.00,,---,0.00,338.00,VWS V14.01,2013-09-13 16:12:00,
2013-09-13 11:15:00,68.8,50.0,29.96,North,356,4.0,14.0,51,0.00,,---,0.00,308.00,VWS V14.01,2013-09-13 16:15:00,
2013-09-13 11:17:00,68.9,50.0,29.96,SSW,195,7.0,12.0,51,0.00,,---,0.00,299.00,VWS V14.01,2013-09-13 16:17:00,
2013-09-13 11:20:00,68.9,50.0,29.96,SSW,198,7.0,12.0,51,0.00,,---,0.00,290.00,VWS V14.01,2013-09-13 16:20:00,
2013-09-13 11:22:00,68.9,50.0,29.96,North,0,10.0,11.0,51,0.00,,---,0.00,289.00,VWS V14.01,2013-09-13 16:22:00,
2013-09-13 11:25:00,68.9,50.0,29.96,North,349,5.0,11.0,51,0.00,,---,0.00,294.00,VWS V14.01,2013-09-13 16:25:00,
2013-09-13 11:27:00,68.9,49.0,29.96,NNW,343,7.0,11.0,49,0.00,,---,0.00,301.00,VWS V14.01,2013-09-13 16:27:00,
2013-09-13 11:30:00,69.1,50.2,29.96,WSW,257,6.0,12.0,51,0.00,,---,0.00,324.00,VWS V14.01,2013-09-13 16:30:00,
2013-09-13 11:32:00,69.3,49.9,29.96,NW,306,7.0,12.0,50,0.00,,---,0.00,329.00,VWS V14.01,2013-09-13 16:32:00,
2013-09-13 11:35:00,69.3,49.9,29.96,North,354,11.0,12.0,50,0.00,,---,0.00,327.00,VWS V14.01,2013-09-13 16:35:00,
2013-09-13 11:37:00,69.3,48.8,29.96,North,350,7.0,11.0,48,0.00,,---,0.00,326.00,VWS V14.01,2013-09-13 16:37:00,
2013-09-13 11:40:00,69.3,49.3,29.96,North,350,11.0,11.0,49,0.00,,---,0.00,338.00,VWS V14.01,2013-09-13 16:40:00,
2013-09-13 11:42:00,69.4,50.0,29.96,NW,326,7.0,12.0,50,0.00,,---,0.00,340.00,VWS V14.01,2013-09-13 16:42:00,
2013-09-13 11:45:00,69.6,49.6,29.95,NW,305,8.0,12.0,49,0.00,,---,0.00,343.00,VWS V14.01,2013-09-13 16:45:00,
2013-09-13 11:48:00,69.6,49.6,29.95,North,350,7.0,12.0,49,0.00,,---,0.00,347.00,VWS V14.01,2013-09-13 16:48:00,
2013-09-13 11:50:00,69.8,49.8,29.95,North,352,6.0,12.0,49,0.00,,---,0.00,352.00,VWS V14.01,2013-09-13 16:50:00,
2013-09-13 11:53:00,69.9,49.9,29.95,North,349,10.0,11.0,49,0.00,,---,0.00,357.00,VWS V14.01,2013-09-13 16:53:00,
2013-09-13 11:55:00,69.9,49.3,29.95,North,0,7.0,11.0,48,0.00,,---,0.00,354.00,VWS V14.01,2013-09-13 16:55:00,
2013-09-13 11:58:00,70.1,50.6,29.95,North,0,9.0,9.0,50,0.00,,---,0.00,352.00,VWS V14.01,2013-09-13 16:58:00,
2013-09-13 12:00:00,70.3,49.7,29.95,North,359,4.0,9.0,48,0.00,,---,0.00,361.00,VWS V14.01,2013-09-13 17:00:00,
2013-09-13 12:03:00,70.3,49.7,29.95,West,274,8.0,11.0,48,0.00,,---,0.00,375.00,VWS V14.01,2013-09-13 17:03:00,
2013-09-13 12:05:00,70.3,49.7,29.95,North,0,7.0,11.0,48,0.00,,---,0.00,384.00,VWS V14.01,2013-09-13 17:05:00,
2013-09-13 12:08:00,70.4,49.2,29.95,NNW,340,6.0,9.0,47,0.00,,---,0.00,382.00,VWS V14.01,2013-09-13 17:08:00,
2013-09-13 12:10:00,70.4,49.8,29.95,North,350,8.0,10.0,48,0.00,,---,0.00,394.00,VWS V14.01,2013-09-13 17:10:00,
2013-09-13 12:13:00,70.8,49.6,29.95,North,0,7.0,9.0,47,0.00,,---,0.00,408.00,VWS V14.01,2013-09-13 17:13:00,
2013-09-13 12:15:00,70.9,49.7,29.94,SE,144,5.0,10.0,47,0.00,,---,0.00,412.00,VWS V14.01,2013-09-13 17:15:00,
2013-09-13 12:18:00,71.1,49.3,29.94,SSW,196,8.0,11.0,46,0.00,,---,0.00,403.00,VWS V14.01,2013-09-13 17:18:00,
2013-09-13 12:20:00,71.1,48.7,29.94,North,0,7.0,11.0,45,0.00,,---,0.00,391.00,VWS V14.01,2013-09-13 17:20:00,
2013-09-13 12:23:00,71.3,50.0,29.94,South,169,8.0,10.0,47,0.00,,---,0.00,375.00,VWS V14.01,2013-09-13 17:23:00,
2013-09-13 12:25:00,71.3,49.5,29.94,North,349,10.0,12.0,46,0.00,,---,0.00,361.00,VWS V14.01,2013-09-13 17:25:00,
2013-09-13 12:28:00,71.1,48.7,29.94,North,359,10.0,14.0,45,0.00,,---,0.00,352.00,VWS V14.01,2013-09-13 17:28:00,
2013-09-13 12:30:00,71.3,49.5,29.94,WNW,284,7.0,14.0,46,0.00,,---,0.00,341.00,VWS V14.01,2013-09-13 17:30:00,
2013-09-13 12:33:00,71.3,49.5,29.94,SSW,203,11.0,11.0,46,0.00,,---,0.00,338.00,VWS V14.01,2013-09-13 17:33:00,
2013-09-13 12:35:00,71.3,49.5,29.94,North,357,6.0,11.0,46,0.00,,---,0.00,338.00,VWS V14.01,2013-09-13 17:35:00,
2013-09-13 12:38:00,71.1,48.7,29.94,North,0,6.0,9.0,45,0.00,,---,0.00,348.00,VWS V14.01,2013-09-13 17:38:00,
2013-09-13 12:40:00,71.3,49.5,29.94,NNW,346,10.0,10.0,46,0.00,,---,0.00,362.00,VWS V14.01,2013-09-13 17:40:00,
2013-09-13 12:43:00,71.3,49.5,29.94,NNW,340,12.0,13.0,46,0.00,,---,0.00,378.00,VWS V14.01,2013-09-13 17:43:00,
2013-09-13 12:45:00,71.3,48.9,29.93,North,356,9.0,13.0,45,0.00,,---,0.00,396.00,VWS V14.01,2013-09-13 17:45:00,
2013-09-13 12:48:00,71.5,49.1,29.93,NNW,343,9.0,11.0,45,0.00,,---,0.00,436.00,VWS V14.01,2013-09-13 17:48:00,
2013-09-13 12:50:00,71.5,49.1,29.93,WNW,295,9.0,11.0,45,0.00,,---,0.00,445.00,VWS V14.01,2013-09-13 17:50:00,
2013-09-13 12:53:00,71.8,49.9,29.93,North,0,7.0,10.0,46,0.00,,---,0.00,454.00,VWS V14.01,2013-09-13 17:53:00,
2013-09-13 12:55:00,72.0,50.1,29.93,North,0,8.0,10.0,46,0.00,,---,0.00,449.00,VWS V14.01,2013-09-13 17:55:00,
2013-09-13 12:59:00,72.1,49.6,29.93,North,352,6.0,12.0,45,0.00,,---,0.00,447.00,VWS V14.01,2013-09-13 17:59:00,
2013-09-13 13:00:00,72.3,49.8,29.92,WNW,288,7.0,12.0,45,0.00,,---,0.00,465.00,VWS V14.01,2013-09-13 18:00:00,
2013-09-13 13:04:00,72.3,48.6,29.92,North,354,5.0,11.0,43,0.00,,---,0.00,475.00,VWS V14.01,2013-09-13 18:04:00,
2013-09-13 13:05:00,72.5,49.4,29.92,NNW,347,6.0,11.0,44,0.00,,---,0.00,466.00,VWS V14.01,2013-09-13 18:05:00,
2013-09-13 13:09:00,72.7,48.9,29.92,North,350,6.0,11.0,43,0.00,,---,0.00,477.00,VWS V14.01,2013-09-13 18:09:00,
2013-09-13 13:10:00,72.7,48.9,29.92,NNW,335,10.0,11.0,43,0.00,,---,0.00,454.00,VWS V14.01,2013-09-13 18:10:00,
2013-09-13 13:14:00,73.0,49.8,29.92,East,96,9.0,10.0,44,0.00,,---,0.00,503.00,VWS V14.01,2013-09-13 18:14:00,
2013-09-13 13:15:00,72.8,48.4,29.92,North,354,6.0,10.0,42,0.00,,---,0.00,556.00,VWS V14.01,2013-09-13 18:15:00,
2013-09-13 13:19:00,73.0,48.6,29.92,South,185,1.0,8.0,42,0.00,,---,0.00,465.00,VWS V14.01,2013-09-13 18:19:00,
2013-09-13 13:20:00,73.0,48.6,29.92,SSW,200,1.0,8.0,42,0.00,,---,0.00,450.00,VWS V14.01,2013-09-13 18:20:00,
2013-09-13 13:24:00,73.3,49.5,29.92,NNW,347,8.0,9.0,43,0.00,,---,0.00,428.00,VWS V14.01,2013-09-13 18:24:00,
2013-09-13 13:25:00,73.5,49.0,29.92,WNW,285,6.0,9.0,42,0.00,,---,0.00,413.00,VWS V14.01,2013-09-13 18:25:00,
2013-09-13 13:29:00,73.5,48.4,29.92,West,272,5.0,12.0,41,0.00,,---,0.00,398.00,VWS V14.01,2013-09-13 18:29:00,
2013-09-13 13:30:00,73.5,49.0,29.91,North,0,6.0,12.0,42,0.00,,---,0.00,392.00,VWS V14.01,2013-09-13 18:30:00,
2013-09-13 13:34:00,73.5,48.4,29.91,NNW,347,7.0,10.0,41,0.00,,---,0.00,378.00,VWS V14.01,2013-09-13 18:34:00,
2013-09-13 13:35:00,73.5,48.4,29.91,North,0,7.0,10.0,41,0.00,,---,0.00,377.00,VWS V14.01,2013-09-13 18:35:00,
2013-09-13 13:39:00,73.2,48.8,29.91,North,350,3.0,7.0,42,0.00,,---,0.00,380.00,VWS V14.01,2013-09-13 18:39:00,
2013-09-13 13:40:00,73.2,48.8,29.91,SW,229,5.0,7.0,42,0.00,,---,0.00,380.00,VWS V14.01,2013-09-13 18:40:00,
2013-09-13 13:44:00,73.3,48.2,29.91,North,0,5.0,8.0,41,0.00,,---,0.00,362.00,VWS V14.01,2013-09-13 18:44:00,
2013-09-13 13:45:00,73.3,48.2,29.91,WSW,239,7.0,8.0,41,0.00,,---,0.00,359.00,VWS V14.01,2013-09-13 18:45:00,
2013-09-13 13:50:00,73.3,47.5,29.91,SE,137,5.0,7.0,40,0.00,,---,0.00,338.00,VWS V14.01,2013-09-13 18:50:00,
2013-09-13 13:55:00,73.2,48.8,29.91,NNW,329,7.0,11.0,42,0.00,,---,0.00,322.00,VWS V14.01,2013-09-13 18:55:00,
2013-09-13 14:00:00,73.3,47.5,29.90,North,353,3.0,7.0,40,0.00,,---,0.00,310.00,VWS V14.01,2013-09-13 19:00:00,
2013-09-13 14:05:00,73.3,48.2,29.90,North,352,2.0,7.0,41,0.00,,---,0.00,310.00,VWS V14.01,2013-09-13 19:05:00,
2013-09-13 14:10:00,73.3,47.5,29.90,North,0,7.0,8.0,40,0.00,,---,0.00,304.00,VWS V14.01,2013-09-13 19:10:00,
2013-09-13 14:15:00,73.2,48.1,29.90,SW,215,6.0,8.0,41,0.00,,---,0.00,308.00,VWS V14.01,2013-09-13 19:15:00,
2013-09-13 14:20:00,73.0,47.9,29.90,SW,220,6.0,12.0,41,0.00,,---,0.00,315.00,VWS V14.01,2013-09-13 19:20:00,
2013-09-13 14:25:00,73.2,47.5,29.90,SE,130,3.0,7.0,40,0.00,,---,0.00,315.00,VWS V14.01,2013-09-13 19:25:00,
2013-09-13 14:30:00,73.3,48.2,29.89,SE,126,3.0,6.0,41,0.00,,---,0.00,301.00,VWS V14.01,2013-09-13 19:30:00,
2013-09-13 14:35:00,73.5,47.0,29.89,North,349,5.0,7.0,39,0.00,,---,0.00,276.00,VWS V14.01,2013-09-13 19:35:00,
2013-09-13 14:40:00,73.5,47.7,29.89,North,0,7.0,7.0,40,0.00,,---,0.00,273.00,VWS V14.01,2013-09-13 19:40:00,
2013-09-13 14:45:00,73.3,47.5,29.89,West,278,3.0,3.0,40,0.00,,---,0.00,266.00,VWS V14.01,2013-09-13 19:45:00,
2013-09-13 14:50:00,73.3,47.5,29.89,East,88,5.0,7.0,40,0.00,,---,0.00,257.00,VWS V14.01,2013-09-13 19:50:00,
2013-09-13 14:51:00,73.3,46.9,29.89,East,79,5.0,5.0,39,0.00,,---,0.00,257.00,VWS V14.01,2013-09-13 19:51:00,
2013-09-13 14:55:00,73.2,46.8,29.89,NNW,346,6.0,8.0,39,0.00,,---,0.00,245.00,VWS V14.01,2013-09-13 19:55:00,
2013-09-13 14:56:00,73.2,46.8,29.89,North,349,6.0,6.0,39,0.00,,---,0.00,243.00,VWS V14.01,2013-09-13 19:56:00,
2013-09-13 15:00:00,73.2,46.8,29.88,SSE,150,3.0,6.0,39,0.00,,---,0.00,239.00,VWS V14.01,2013-09-13 20:00:00,
2013-09-13 15:01:00,73.2,46.8,29.88,SSE,162,3.0,3.0,39,0.00,,---,0.00,239.00,VWS V14.01,2013-09-13 20:01:00,
2013-09-13 15:05:00,73.2,46.8,29.88,North,0,3.0,7.0,39,0.00,,---,0.00,234.00,VWS V14.01,2013-09-13 20:05:00,
2013-09-13 15:06:00,73.2,47.5,29.88,North,0,5.0,5.0,40,0.00,,---,0.00,232.00,VWS V14.01,2013-09-13 20:06:00,
2013-09-13 15:10:00,73.2,46.8,29.88,SW,236,3.0,7.0,39,0.00,,---,0.00,223.00,VWS V14.01,2013-09-13 20:10:00,
2013-09-13 15:11:00,73.2,46.8,29.88,NNW,347,2.0,5.0,39,0.00,,---,0.00,225.00,VWS V14.01,2013-09-13 20:11:00,
2013-09-13 15:15:00,73.3,46.9,29.88,North,354,2.0,5.0,39,0.00,,---,0.00,227.00,VWS V14.01,2013-09-13 20:15:00,
2013-09-13 15:16:00,73.3,47.5,29.88,SW,215,1.0,2.0,40,0.00,,---,0.00,227.00,VWS V14.01,2013-09-13 20:16:00,
2013-09-13 15:20:00,73.3,46.2,29.88,SW,220,2.0,7.0,38,0.00,,---,0.00,227.00,VWS V14.01,2013-09-13 20:20:00,
2013-09-13 15:21:00,73.3,46.2,29.88,North,0,3.0,3.0,38,0.00,,---,0.00,227.00,VWS V14.01,2013-09-13 20:21:00,
2013-09-13 15:25:00,73.3,46.9,29.88,North,353,2.0,7.0,39,0.00,,---,0.00,225.00,VWS V14.01,2013-09-13 20:25:00,
2013-09-13 15:26:00,73.3,46.9,29.88,North,0,3.0,5.0,39,0.00,,---,0.00,225.00,VWS V14.01,2013-09-13 20:26:00,
2013-09-13 15:30:00,73.5,48.4,29.88,WNW,298,3.0,6.0,41,0.00,,---,0.00,230.00,VWS V14.01,2013-09-13 20:30:00,
2013-09-13 15:31:00,73.3,47.5,29.88,West,280,2.0,4.0,40,0.00,,---,0.00,230.00,VWS V14.01,2013-09-13 20:31:00,
2013-09-13 15:35:00,73.5,47.0,29.88,NNW,347,4.0,5.0,39,0.00,,---,0.00,246.00,VWS V14.01,2013-09-13 20:35:00,
2013-09-13 15:36:00,73.5,48.4,29.88,SSW,202,5.0,6.0,41,0.00,,---,0.00,250.00,VWS V14.01,2013-09-13 20:36:00,
2013-09-13 15:40:00,73.5,47.7,29.88,ESE,102,2.0,6.0,40,0.00,,---,0.00,276.00,VWS V14.01,2013-09-13 20:40:00,
2013-09-13 15:41:00,73.5,48.4,29.88,SE,143,3.0,3.0,41,0.00,,---,0.00,276.00,VWS V14.01,2013-09-13 20:41:00,
2013-09-13 15:45:00,73.5,49.0,29.87,North,0,5.0,5.0,42,0.00,,---,0.00,274.00,VWS V14.01,2013-09-13 20:45:00,
2013-09-13 15:46:00,73.5,48.4,29.87,WNW,302,5.0,6.0,41,0.00,,---,0.00,274.00,VWS V14.01,2013-09-13 20:46:00,
2013-09-13 15:50:00,73.5,48.4,29.87,SSW,203,1.0,7.0,41,0.00,,---,0.00,280.00,VWS V14.01,2013-09-13 20:50:00,
2013-09-13 15:51:00,73.5,47.7,29.87,WSW,241,2.0,3.0,40,0.00,,---,0.00,282.00,VWS V14.01,2013-09-13 20:51:00,
2013-09-13 15:55:00,73.7,47.2,29.87,SSW,203,3.0,5.0,39,0.00,,---,0.00,292.00,VWS V14.01,2013-09-13 20:55:00,
2013-09-13 15:56:00,73.7,47.9,29.87,NNW,340,2.0,3.0,40,0.00,,---,0.00,297.00,VWS V14.01,2013-09-13 20:56:00,
2013-09-13 16:00:00,73.9,48.7,29.86,NNW,347,3.0,5.0,41,0.00,,---,0.00,294.00,VWS V14.01,2013-09-13 21:00:00,
2013-09-13 16:01:00,73.9,48.7,29.86,NNW,343,2.0,3.0,41,0.00,,---,0.00,292.00,VWS V14.01,2013-09-13 21:01:00,
2013-09-13 16:05:00,74.0,48.8,29.86,North,0,5.0,6.0,41,0.00,,---,0.00,296.00,VWS V14.01,2013-09-13 21:05:00,
2013-09-13 16:07:00,74.0,48.2,29.86,North,359,6.0,6.0,40,0.00,,---,0.00,280.00,VWS V14.01,2013-09-13 21:07:00,
2013-09-13 16:10:00,73.9,48.7,29.86,WNW,296,5.0,9.0,41,0.00,,---,0.00,266.00,VWS V14.01,2013-09-13 21:10:00,
2013-09-13 16:12:00,73.9,48.7,29.86,SW,224,7.0,10.0,41,0.00,,---,0.00,259.00,VWS V14.01,2013-09-13 21:12:00,
2013-09-13 16:15:00,73.7,49.2,29.86,SE,124,5.0,10.0,42,0.00,,---,0.00,248.00,VWS V14.01,2013-09-13 21:15:00,
2013-09-13 16:17:00,73.5,49.0,29.86,SSW,198,5.0,5.0,42,0.00,,---,0.00,246.00,VWS V14.01,2013-09-13 21:17:00,
2013-09-13 16:20:00,73.7,49.2,29.86,ESE,106,4.0,5.0,42,0.00,,---,0.00,243.00,VWS V14.01,2013-09-13 21:20:00,
2013-09-13 16:22:00,73.9,48.7,29.86,ESE,103,7.0,7.0,41,0.00,,---,0.00,243.00,VWS V14.01,2013-09-13 21:22:00,
2013-09-13 16:25:00,73.9,48.7,29.86,WSW,257,5.0,8.0,41,0.00,,---,0.00,241.00,VWS V14.01,2013-09-13 21:25:00,
2013-09-13 16:27:00,73.7,48.6,29.86,SSW,205,5.0,7.0,41,0.00,,---,0.00,238.00,VWS V14.01,2013-09-13 21:27:00,
2013-09-13 16:30:00,73.7,48.6,29.86,SSW,205,3.0,7.0,41,0.00,,---,0.00,234.00,VWS V14.01,2013-09-13 21:30:00,
2013-09-13 16:32:00,73.7,49.2,29.86,North,0,3.0,5.0,42,0.00,,---,0.00,234.00,VWS V14.01,2013-09-13 21:32:00,
2013-09-13 16:35:00,73.7,49.2,29.86,NW,305,6.0,8.0,42,0.00,,---,0.00,236.00,VWS V14.01,2013-09-13 21:35:00,
2013-09-13 16:37:00,73.7,49.8,29.86,North,0,8.0,8.0,43,0.00,,---,0.00,234.00,VWS V14.01,2013-09-13 21:37:00,
2013-09-13 16:40:00,73.7,49.8,29.86,East,79,7.0,10.0,43,0.00,,---,0.00,238.00,VWS V14.01,2013-09-13 21:40:00,
2013-09-13 16:42:00,73.7,49.8,29.86,NNW,342,7.0,7.0,43,0.00,,---,0.00,234.00,VWS V14.01,2013-09-13 21:42:00,
2013-09-13 16:45:00,73.7,50.5,29.85,NNW,344,2.0,8.0,44,0.00,,---,0.00,218.00,VWS V14.01,2013-09-13 21:45:00,
2013-09-13 16:47:00,73.7,50.5,29.85,NW,325,4.0,5.0,44,0.00,,---,0.00,216.00,VWS V14.01,2013-09-13 21:47:00,
2013-09-13 16:50:00,73.7,51.1,29.85,North,0,6.0,7.0,45,0.00,,---,0.00,206.00,VWS V14.01,2013-09-13 21:50:00,
2013-09-13 16:52:00,73.7,50.5,29.85,NNW,337,7.0,8.0,44,0.00,,---,0.00,208.00,VWS V14.01,2013-09-13 21:52:00,
2013-09-13 16:55:00,73.7,50.5,29.85,East,83,6.0,8.0,44,0.00,,---,0.00,206.00,VWS V14.01,2013-09-13 21:55:00,
2013-09-13 16:57:00,73.5,50.9,29.85,North,0,7.0,10.0,45,0.00,,---,0.00,208.00,VWS V14.01,2013-09-13 21:57:00,
2013-09-13 17:00:00,73.3,50.1,29.84,WNW,302,7.0,11.0,44,0.00,,---,0.00,208.00,VWS V14.01,2013-09-13 22:00:00,
2013-09-13 17:02:00,73.3,50.1,29.84,NNW,335,6.0,11.0,44,0.00,,---,0.00,199.00,VWS V14.01,2013-09-13 22:02:00,
2013-09-13 17:05:00,73.3,50.7,29.84,NNW,347,8.0,11.0,45,0.00,,---,0.00,195.00,VWS V14.01,2013-09-13 22:05:00,
2013-09-13 17:07:00,73.3,50.1,29.84,WNW,295,6.0,8.0,44,0.00,,---,0.00,188.00,VWS V14.01,2013-09-13 22:07:00,
2013-09-13 17:10:00,73.3,50.1,29.84,North,350,6.0,9.0,44,0.00,,---,0.00,188.00,VWS V14.01,2013-09-13 22:10:00,
2013-09-13 17:12:00,73.5,50.3,29.84,WNW,299,7.0,7.0,44,0.00,,---,0.00,192.00,VWS V14.01,2013-09-13 22:12:00,
2013-09-13 17:15:00,73.3,50.1,29.84,South,191,6.0,8.0,44,0.00,,---,0.00,197.00,VWS V14.01,2013-09-13 22:15:00,
2013-09-13 17:17:00,73.3,49.5,29.84,SW,236,7.0,7.0,43,0.00,,---,0.00,199.00,VWS V14.01,2013-09-13 22:17:00,
2013-09-13 17:20:00,73.5,50.9,29.84,SSW,205,6.0,9.0,45,0.00,,---,0.00,194.00,VWS V14.01,2013-09-13 22:20:00,
2013-09-13 17:22:00,73.5,49.7,29.84,NNW,346,10.0,10.0,43,0.00,,---,0.00,190.00,VWS V14.01,2013-09-13 22:22:00,
2013-09-13 17:25:00,73.3,50.7,29.84,NNW,330,6.0,11.0,45,0.00,,---,0.00,185.00,VWS V14.01,2013-09-13 22:25:00,
2013-09-13 17:27:00,73.3,50.7,29.84,WNW,288,10.0,12.0,45,0.00,,---,0.00,183.00,VWS V14.01,2013-09-13 22:27:00,
2013-09-13 17:30:00,73.0,51.0,29.84,SW,216,7.0,12.0,46,0.00,,---,0.00,176.00,VWS V14.01,2013-09-13 22:30:00,
2013-09-13 17:32:00,72.8,50.8,29.84,WSW,256,12.0,12.0,46,0.00,,---,0.00,174.00,VWS V14.01,2013-09-13 22:32:00,
2013-09-13 17:35:00,72.7,51.3,29.84,SW,236,10.0,12.0,47,0.00,,---,0.00,171.00,VWS V14.01,2013-09-13 22:35:00,
2013-09-13 17:38:00,72.7,51.3,29.84,South,182,10.0,12.0,47,0.00,,---,0.00,167.00,VWS V14.01,2013-09-13 22:38:00,
2013-09-13 17:40:00,72.5,51.2,29.84,West,280,10.0,12.0,47,0.00,,---,0.00,171.00,VWS V14.01,2013-09-13 22:40:00,
2013-09-13 17:43:00,72.3,51.5,29.84,South,178,7.0,10.0,48,0.00,,---,0.00,171.00,VWS V14.01,2013-09-13 22:43:00,
2013-09-13 17:45:00,72.3,51.5,29.84,NW,318,7.0,12.0,48,0.00,,---,0.00,169.00,VWS V14.01,2013-09-13 22:45:00,
2013-09-13 17:48:00,72.3,51.5,29.84,SSW,195,10.0,12.0,48,0.00,,---,0.00,164.00,VWS V14.01,2013-09-13 22:48:00,
2013-09-13 17:50:00,72.1,51.9,29.84,NNW,339,6.0,12.0,49,0.00,,---,0.00,158.00,VWS V14.01,2013-09-13 22:50:00,
2013-09-13 17:53:00,72.1,51.9,29.84,SSW,209,11.0,12.0,49,0.00,,---,0.00,155.00,VWS V14.01,2013-09-13 22:53:00,
2013-09-13 17:55:00,72.0,51.8,29.84,WSW,256,8.0,12.0,49,0.00,,---,0.00,146.00,VWS V14.01,2013-09-13 22:55:00,
2013-09-13 17:58:00,72.0,51.3,29.84,East,96,8.0,10.0,48,0.00,,---,0.00,148.00,VWS V14.01,2013-09-13 22:58:00,
2013-09-13 18:00:00,71.8,51.1,29.83,ENE,73,11.0,11.0,48,0.00,,---,0.00,143.00,VWS V14.01,2013-09-13 23:00:00,
2013-09-13 18:03:00,71.8,51.1,29.83,NNW,347,11.0,12.0,48,0.00,,---,0.00,139.00,VWS V14.01,2013-09-13 23:03:00,
2013-09-13 18:05:00,71.8,51.6,29.83,North,0,7.0,12.0,49,0.00,,---,0.00,132.00,VWS V14.01,2013-09-13 23:05:00,
2013-09-13 18:08:00,71.8,51.1,29.83,East,83,11.0,11.0,48,0.00,,---,0.00,114.00,VWS V14.01,2013-09-13 23:08:00,
2013-09-13 18:10:00,71.8,51.1,29.83,SW,224,7.0,12.0,48,0.00,,---,0.00,104.00,VWS V14.01,2013-09-13 23:10:00,
2013-09-13 18:13:00,71.8,51.1,29.83,South,171,8.0,12.0,48,0.00,,---,0.00,97.00,VWS V14.01,2013-09-13 23:13:00,
2013-09-13 18:15:00,71.8,51.6,29.83,North,352,7.0,12.0,49,0.00,,---,0.00,91.00,VWS V14.01,2013-09-13 23:15:00,
2013-09-13 18:18:00,71.6,51.5,29.83,North,0,8.0,10.0,49,0.00,,---,0.00,88.00,VWS V14.01,2013-09-13 23:18:00,
2013-09-13 18:20:00,71.6,51.5,29.83,NW,315,6.0,10.0,49,0.00,,---,0.00,88.00,VWS V14.01,2013-09-13 23:20:00,
2013-09-13 18:23:00,71.6,51.5,29.83,East,80,5.0,11.0,49,0.00,,---,0.00,86.00,VWS V14.01,2013-09-13 23:23:00,
2013-09-13 18:25:00,71.5,51.9,29.83,North,359,6.0,11.0,50,0.00,,---,0.00,86.00,VWS V14.01,2013-09-13 23:25:00,
2013-09-13 18:28:00,71.5,52.4,29.83,NNW,343,6.0,8.0,51,0.00,,---,0.00,84.00,VWS V14.01,2013-09-13 23:28:00,
2013-09-13 18:30:00,71.3,52.3,29.83,North,353,6.0,8.0,51,0.00,,---,0.00,83.00,VWS V14.01,2013-09-13 23:30:00,
2013-09-13 18:33:00,71.3,52.8,29.83,NW,325,6.0,10.0,52,0.00,,---,0.00,77.00,VWS V14.01,2013-09-13 23:33:00,
2013-09-13 18:35:00,71.3,52.3,29.83,North,353,7.0,10.0,51,0.00,,---,0.00,74.00,VWS V14.01,2013-09-13 23:35:00,
2013-09-13 18:38:00,71.1,51.5,29.83,NNW,346,12.0,12.0,50,0.00,,---,0.00,67.00,VWS V14.01,2013-09-13 23:38:00,
2013-09-13 18:40:00,71.1,51.0,29.83,East,85,9.0,13.0,49,0.00,,---,0.00,70.00,VWS V14.01,2013-09-13 23:40:00,
2013-09-13 18:43:00,70.9,51.3,29.83,NW,320,9.0,12.0,50,0.00,,---,0.00,65.00,VWS V14.01,2013-09-13 23:43:00,
2013-09-13 18:45:00,70.9,51.3,29.83,North,357,9.0,12.0,50,0.00,,---,0.00,63.00,VWS V14.01,2013-09-13 23:45:00,
2013-09-13 18:48:00,70.8,51.8,29.83,South,174,7.0,11.0,51,0.00,,---,0.00,58.00,VWS V14.01,2013-09-13 23:48:00,
2013-09-13 18:50:00,70.8,51.8,29.83,East,88,8.0,11.0,51,0.00,,---,0.00,58.00,VWS V14.01,2013-09-13 23:50:00,
2013-09-13 18:53:00,70.6,51.6,29.83,North,357,7.0,11.0,51,0.00,,---,0.00,55.00,VWS V14.01,2013-09-13 23:53:00,
2013-09-13 18:55:00,70.4,51.4,29.83,SW,236,9.0,11.0,51,0.00,,---,0.00,53.00,VWS V14.01,2013-09-13 23:55:00,
2013-09-13 18:59:00,70.4,51.4,29.83,SSW,209,7.0,11.0,51,0.00,,---,0.00,51.00,VWS V14.01,2013-09-13 23:59:00,
2013-09-13 19:00:00,70.3,51.9,29.83,WNW,287,7.0,11.0,52,0.00,,---,0.00,49.00,VWS V14.01,2013-09-14 00:00:00,
2013-09-13 19:04:00,70.1,51.7,29.83,North,354,6.0,8.0,52,0.00,,---,0.00,51.00,VWS V14.01,2013-09-14 00:04:00,
2013-09-13 19:05:00,70.1,52.2,29.83,North,352,7.0,8.0,53,0.00,,---,0.00,53.00,VWS V14.01,2013-09-14 00:05:00,
2013-09-13 19:09:00,69.9,51.5,29.83,North,0,6.0,8.0,52,0.00,,---,0.00,40.00,VWS V14.01,2013-09-14 00:09:00,
2013-09-13 19:10:00,69.9,52.0,29.83,SE,143,8.0,8.0,53,0.00,,---,0.00,37.00,VWS V14.01,2013-09-14 00:10:00,
2013-09-13 19:14:00,69.8,51.9,29.83,North,357,5.0,8.0,53,0.00,,---,0.00,33.00,VWS V14.01,2013-09-14 00:14:00,
2013-09-13 19:15:00,69.8,52.4,29.83,WSW,250,5.0,8.0,54,0.00,,---,0.00,26.00,VWS V14.01,2013-09-14 00:15:00,
2013-09-13 19:19:00,69.6,52.2,29.83,North,0,7.0,8.0,54,0.00,,---,0.00,21.00,VWS V14.01,2013-09-14 00:19:00,
2013-09-13 19:20:00,69.4,52.0,29.83,NW,325,6.0,8.0,54,0.00,,---,0.00,21.00,VWS V14.01,2013-09-14 00:20:00,
2013-09-13 19:24:00,69.3,52.5,29.83,SW,233,7.0,8.0,55,0.00,,---,0.00,7.00,VWS V14.01,2013-09-14 00:24:00,
2013-09-13 19:25:00,69.3,52.5,29.83,North,354,6.0,8.0,55,0.00,,---,0.00,7.00,VWS V14.01,2013-09-14 00:25:00,
2013-09-13 19:29:00,68.9,52.1,29.83,North,0,5.0,7.0,55,0.00,,---,0.00,0.00,VWS V14.01,2013-09-14 00:29:00,
2013-09-13 19:30:00,68.9,52.1,29.82,NW,309,5.0,7.0,55,0.00,,---,0.00,0.00,VWS V14.01,2013-09-14 00:30:00,
2013-09-13 19:34:00,68.8,52.5,29.82,NW,316,5.0,7.0,56,0.00,,---,0.00,0.00,VWS V14.01,2013-09-14 00:34:00,
2013-09-13 19:35:00,68.6,52.3,29.82,North,0,6.0,7.0,56,0.00,,---,0.00,0.00,VWS V14.01,2013-09-14 00:35:00,
2013-09-13 19:39:00,68.4,52.6,29.82,NNW,330,5.0,7.0,57,0.00,,---,0.00,0.00,VWS V14.01,2013-09-14 00:39:00,
2013-09-13 19:40:00,68.4,52.6,29.82,WSW,239,6.0,7.0,57,0.00,,---,0.00,0.00,VWS V14.01,2013-09-14 00:40:00,
2013-09-13 19:44:00,68.3,53.0,29.82,ESE,116,6.0,7.0,58,0.00,,---,0.00,0.00,VWS V14.01,2013-09-14 00:44:00,
2013-09-13 19:45:00,68.3,53.0,29.82,SW,219,5.0,7.0,58,0.00,,---,0.00,0.00,VWS V14.01,2013-09-14 00:45:00,
2013-09-13 19:49:00,68.1,52.8,29.82,NNW,336,7.0,7.0,58,0.00,,---,0.00,0.00,VWS V14.01,2013-09-14 00:49:00,
2013-09-13 19:50:00,68.1,52.8,29.82,North,356,5.0,7.0,58,0.00,,---,0.00,0.00,VWS V14.01,2013-09-14 00:50:00,
2013-09-13 19:54:00,68.1,52.8,29.82,ENE,73,3.0,5.0,58,0.00,,---,0.00,0.00,VWS V14.01,2013-09-14 00:54:00,
2013-09-13 19:55:00,67.9,52.6,29.82,South,189,3.0,5.0,58,0.00,,---,0.00,0.00,VWS V14.01,2013-09-14 00:55:00,
2013-09-13 19:59:00,67.9,52.6,29.82,ENE,78,3.0,5.0,58,0.00,,---,0.00,0.00,VWS V14.01,2013-09-14 00:59:00,
2013-09-13 20:00:00,67.9,52.6,29.83,North,0,3.0,5.0,58,0.00,,---,0.00,0.00,VWS V14.01,2013-09-14 01:00:00,
2013-09-13 20:04:00,67.8,52.5,29.83,SW,232,3.0,4.0,58,0.00,,---,0.00,0.00,VWS V14.01,2013-09-14 01:04:00,
2013-09-13 20:05:00,67.8,52.5,29.83,SSW,206,2.0,4.0,58,0.00,,---,0.00,0.00,VWS V14.01,2013-09-14 01:05:00,
2013-09-13 20:09:00,67.9,52.1,29.83,South,189,0.0,3.0,57,0.00,,---,0.00,0.00,VWS V14.01,2013-09-14 01:09:00,
2013-09-13 20:10:00,67.9,52.1,29.83,SSW,195,0.0,3.0,57,0.00,,---,0.00,0.00,VWS V14.01,2013-09-14 01:10:00,
2013-09-13 20:15:00,67.9,52.1,29.83,South,185,0.0,0.0,57,0.00,,---,0.00,0.00,VWS V14.01,2013-09-14 01:15:00,
2013-09-13 20:20:00,67.9,52.1,29.83,South,186,0.0,0.0,57,0.00,,---,0.00,0.00,VWS V14.01,2013-09-14 01:20:00,
2013-09-13 20:25:00,67.9,52.1,29.83,South,182,2.0,3.0,57,0.00,,---,0.00,0.00,VWS V14.01,2013-09-14 01:25:00,
2013-09-13 20:30:00,67.8,52.0,29.83,South,188,1.0,3.0,57,0.00,,---,0.00,0.00,VWS V14.01,2013-09-14 01:30:00,
2013-09-13 20:35:00,67.8,52.0,29.83,South,176,2.0,3.0,57,0.00,,---,0.00,0.00,VWS V14.01,2013-09-14 01:35:00,
2013-09-13 20:40:00,67.8,52.5,29.83,South,178,2.0,5.0,58,0.00,,---,0.00,0.00,VWS V14.01,2013-09-14 01:40:00,
2013-09-13 20:45:00,67.8,52.5,29.84,ENE,73,2.0,5.0,58,0.00,,---,0.00,0.00,VWS V14.01,2013-09-14 01:45:00,
2013-09-13 20:50:00,67.6,52.3,29.84,SSW,205,3.0,3.0,58,0.00,,---,0.00,0.00,VWS V14.01,2013-09-14 01:50:00,
2013-09-13 20:55:00,67.6,52.3,29.84,ENE,68,3.0,3.0,58,0.00,,---,0.00,0.00,VWS V14.01,2013-09-14 01:55:00,
2013-09-13 21:00:00,67.4,52.6,29.85,ENE,68,3.0,3.0,59,0.00,,---,0.00,0.00,VWS V14.01,2013-09-14 02:00:00,
2013-09-13 21:05:00,67.3,52.5,29.85,ENE,73,3.0,5.0,59,0.00,,---,0.00,0.00,VWS V14.01,2013-09-14 02:05:00,
2013-09-13 21:10:00,67.3,52.5,29.85,NNW,342,3.0,5.0,59,0.00,,---,0.00,0.00,VWS V14.01,2013-09-14 02:10:00,
2013-09-13 21:15:00,67.1,52.8,29.84,North,0,3.0,6.0,60,0.00,,---,0.00,0.00,VWS V14.01,2013-09-14 02:15:00,
2013-09-13 21:20:00,66.9,52.6,29.84,East,82,2.0,3.0,60,0.00,,---,0.00,0.00,VWS V14.01,2013-09-14 02:20:00,
2013-09-13 21:25:00,66.8,52.9,29.84,North,350,4.0,4.0,61,0.00,,---,0.00,0.00,VWS V14.01,2013-09-14 02:25:00,
2013-09-13 21:30:00,66.6,52.8,29.84,NNW,346,5.0,5.0,61,0.00,,---,0.00,0.00,VWS V14.01,2013-09-14 02:30:00,
2013-09-13 21:35:00,66.4,53.0,29.84,South,191,3.0,5.0,62,0.00,,---,0.00,0.00,VWS V14.01,2013-09-14 02:35:00,
2013-09-13 21:36:00,66.4,53.0,29.84,South,175,2.0,3.0,62,0.00,,---,0.00,0.00,VWS V14.01,2013-09-14 02:36:00,
2013-09-13 21:40:00,66.3,53.3,29.84,NNW,347,3.0,5.0,63,0.00,,---,0.00,0.00,VWS V14.01,2013-09-14 02:40:00,
2013-09-13 21:41:00,66.3,53.3,29.84,NNW,346,4.0,4.0,63,0.00,,---,0.00,0.00,VWS V14.01,2013-09-14 02:41:00,
2013-09-13 21:45:00,66.1,53.6,29.84,NNW,343,5.0,6.0,64,0.00,,---,0.00,0.00,VWS V14.01,2013-09-14 02:45:00,
2013-09-13 21:46:00,66.0,53.9,29.84,NW,319,5.0,5.0,65,0.00,,---,0.00,0.00,VWS V14.01,2013-09-14 02:46:00,
2013-09-13 21:50:00,65.6,53.5,29.84,NNW,340,5.0,7.0,65,0.00,,---,0.00,0.00,VWS V14.01,2013-09-14 02:50:00,
2013-09-13 21:51:00,65.6,53.5,29.84,WSW,258,3.0,5.0,65,0.00,,---,0.00,0.00,VWS V14.01,2013-09-14 02:51:00,
2013-09-13 21:55:00,65.6,53.5,29.84,East,88,3.0,6.0,65,0.00,,---,0.00,0.00,VWS V14.01,2013-09-14 02:55:00,
2013-09-13 21:56:00,65.6,53.5,29.84,North,356,3.0,4.0,65,0.00,,---,0.00,0.00,VWS V14.01,2013-09-14 02:56:00,
2013-09-13 22:00:00,65.5,53.4,29.84,North,0,5.0,6.0,65,0.00,,---,0.00,0.00,VWS V14.01,2013-09-14 03:00:00,
2013-09-13 22:01:00,65.5,53.4,29.84,SSW,198,5.0,6.0,65,0.00,,---,0.00,0.00,VWS V14.01,2013-09-14 03:01:00,
2013-09-13 22:05:00,65.3,53.7,29.84,North,356,6.0,7.0,66,0.00,,---,0.00,0.00,VWS V14.01,2013-09-14 03:05:00,
2013-09-13 22:06:00,65.3,53.7,29.84,NW,316,4.0,6.0,66,0.00,,---,0.00,0.00,VWS V14.01,2013-09-14 03:06:00,
2013-09-13 22:10:00,65.2,54.0,29.84,North,349,3.0,6.0,67,0.00,,---,0.00,0.00,VWS V14.01,2013-09-14 03:10:00,
2013-09-13 22:11:00,65.2,54.0,29.84,SSE,161,4.0,5.0,67,0.00,,---,0.00,0.00,VWS V14.01,2013-09-14 03:11:00,
2013-09-13 22:15:00,65.0,53.4,29.84,WSW,248,5.0,8.0,66,0.00,,---,0.00,0.00,VWS V14.01,2013-09-14 03:15:00,
2013-09-13 22:16:00,65.0,53.4,29.84,North,0,6.0,6.0,66,0.00,,---,0.00,0.00,VWS V14.01,2013-09-14 03:16:00,
2013-09-13 22:20:00,65.0,53.4,29.84,North,359,4.0,7.0,66,0.00,,---,0.00,0.00,VWS V14.01,2013-09-14 03:20:00,
2013-09-13 22:21:00,65.0,53.4,29.84,NNW,344,5.0,5.0,66,0.00,,---,0.00,0.00,VWS V14.01,2013-09-14 03:21:00,
2013-09-13 22:25:00,65.0,53.0,29.84,NNW,346,5.0,6.0,65,0.00,,---,0.00,0.00,VWS V14.01,2013-09-14 03:25:00,
2013-09-13 22:26:00,65.0,53.0,29.84,NNW,346,4.0,5.0,65,0.00,,---,0.00,0.00,VWS V14.01,2013-09-14 03:26:00,
2013-09-13 22:30:00,65.0,52.5,29.84,North,354,3.0,7.0,64,0.00,,---,0.00,0.00,VWS V14.01,2013-09-14 03:30:00,
2013-09-13 22:31:00,65.0,52.5,29.84,North,352,5.0,6.0,64,0.00,,---,0.00,0.00,VWS V14.01,2013-09-14 03:31:00,
2013-09-13 22:35:00,65.2,52.3,29.84,WNW,285,6.0,8.0,63,0.00,,---,0.00,0.00,VWS V14.01,2013-09-14 03:35:00,
2013-09-13 22:36:00,65.2,52.3,29.84,North,354,6.0,6.0,63,0.00,,---,0.00,0.00,VWS V14.01,2013-09-14 03:36:00,
2013-09-13 22:40:00,65.2,52.3,29.84,WSW,254,2.0,7.0,63,0.00,,---,0.00,0.00,VWS V14.01,2013-09-14 03:40:00,
2013-09-13 22:41:00,65.2,52.3,29.84,North,0,4.0,5.0,63,0.00,,---,0.00,0.00,VWS V14.01,2013-09-14 03:41:00,
2013-09-13 22:45:00,65.0,52.1,29.84,North,0,6.0,7.0,63,0.00,,---,0.00,0.00,VWS V14.01,2013-09-14 03:45:00,
2013-09-13 22:46:00,65.0,52.1,29.84,SSE,150,5.0,6.0,63,0.00,,---,0.00,0.00,VWS V14.01,2013-09-14 03:46:00,
2013-09-13 22:50:00,64.8,52.3,29.84,North,353,5.0,7.0,64,0.00,,---,0.00,0.00,VWS V14.01,2013-09-14 03:50:00,
2013-09-13 22:51:00,64.8,52.3,29.84,North,0,7.0,7.0,64,0.00,,---,0.00,0.00,VWS V14.01,2013-09-14 03:51:00,
2013-09-13 22:55:00,64.7,52.3,29.84,North,0,5.0,7.0,64,0.00,,---,0.00,0.00,VWS V14.01,2013-09-14 03:55:00,
2013-09-13 22:56:00,64.5,52.1,29.84,SSW,198,6.0,7.0,64,0.00,,---,0.00,0.00,VWS V14.01,2013-09-14 03:56:00,
2013-09-13 23:00:00,64.5,52.1,29.84,West,277,2.0,7.0,64,0.00,,---,0.00,0.00,VWS V14.01,2013-09-14 04:00:00,
2013-09-13 23:01:00,64.5,52.5,29.84,WSW,250,6.0,6.0,65,0.00,,---,0.00,0.00,VWS V14.01,2013-09-14 04:01:00,
2013-09-13 23:02:00,64.3,52.3,29.84,NW,312,6.0,6.0,65,0.00,,---,0.00,0.00,VWS V14.01,2013-09-14 04:02:00,
2013-09-13 23:03:00,64.3,52.3,29.84,WSW,244,4.0,7.0,65,0.00,,---,0.00,0.00,VWS V14.01,2013-09-14 04:03:00,
2013-09-13 23:05:00,64.3,51.9,29.84,North,357,5.0,7.0,64,0.00,,---,0.00,0.00,VWS V14.01,2013-09-14 04:05:00,
2013-09-13 23:10:00,64.2,52.2,29.84,WNW,299,5.0,6.0,65,0.00,,---,0.00,0.00,VWS V14.01,2013-09-14 04:10:00,
2013-09-13 23:15:00,64.0,52.0,29.84,NNW,336,5.0,7.0,65,0.00,,---,0.00,0.00,VWS V14.01,2013-09-14 04:15:00,
2013-09-13 23:20:00,64.0,52.0,29.84,SE,137,6.0,7.0,65,0.00,,---,0.00,0.00,VWS V14.01,2013-09-14 04:20:00,
2013-09-13 23:25:00,63.9,51.9,29.84,NNW,344,6.0,7.0,65,0.00,,---,0.00,0.00,VWS V14.01,2013-09-14 04:25:00,
2013-09-13 23:30:00,63.7,52.1,29.84,North,0,5.0,7.0,66,0.00,,---,0.00,0.00,VWS V14.01,2013-09-14 04:30:00,
2013-09-13 23:35:00,63.5,52.0,29.84,North,352,4.0,7.0,66,0.00,,---,0.00,0.00,VWS V14.01,2013-09-14 04:35:00,
2013-09-13 23:40:00,63.4,51.9,29.84,North,0,5.0,6.0,66,0.00,,---,0.00,0.00,VWS V14.01,2013-09-14 04:40:00,
2013-09-13 23:45:00,63.2,52.1,29.84,North,353,5.0,6.0,67,0.00,,---,0.00,0.00,VWS V14.01,2013-09-14 04:45:00,
2013-09-13 23:50:00,63.1,52.0,29.84,North,0,5.0,6.0,67,0.00,,---,0.00,0.00,VWS V14.01,2013-09-14 04:50:00,
2013-09-13 23:55:00,63.1,52.0,29.84,North,349,6.0,6.0,67,0.00,,---,0.00,0.00,VWS V14.01,2013-09-14 04:55:00,